Regional Weather Roundup
Issued by NWS

Home | Current Version | Previous Version | Graphics & Text | Print | Product List | Glossary On
Versions: 1 2 3 4 5 6 7 8 9 10 11 12 13 14 15 16 17 18 19 20 21 22 23 24 25 26 27 28 29 30 31 32 33 34 35 36 37 38 39 40 41 42 43 44 45 46 47 48 49 50
000
ASUS43 KIND 041759
RWRIN

WEATHER ROUNDUP FOR INDIANA
NATIONAL WEATHER SERVICE INDIANAPOLIS IN
200 PM EDT MON MAY 04 2015

NOTE: "FAIR" INDICATES FEW OR NO CLOUDS BELOW 12,000 FEET WITH NO
SIGNIFICANT WEATHER AND/OR OBSTRUCTIONS TO VISIBILITY.

* - STATION DOES NOT REPORT WEATHER SUCH AS PRECIPITATION OR FOG.

+ - STATION NOT QUALITY CONTROLLED BY THE NATIONAL WEATHER SERVICE.
    USE DATA WITH CAUTION...ESPECIALLY DEWPOINT AND RELATIVE
    HUMIDITY OBSERVATIONS.

INZ001>003-010>013-019-020-041900-
NORTHWEST INDIANA

CITY           SKY/WX    TMP DP  RH WIND       PRES   REMARKS
GARY /AIRPORT/ PTSUNNY   72 N/A N/A SW10      30.11F

$$

LMZ046-743>745-041900-
SOUTHERN LAKE MICHIGAN

STATION/POSITION TIME  TEMP    WIND        PRES    WAVE
                       AIR SEA DIR/SP/G            HT
                 (UTC) (F)     (DEG/KT/KT) (MB)    (FT)
BURNS HARBOR     1700   62     300/  2/  7 1020.3R
MICHIGAN CITY    1700   59     240/  8/  9   N/A
5NW MICH CITY    1700   57 51  280/  4/  6   N/A     0

$$

INZ004-005-014>016-021>024-041900-
NORTH CENTRAL INDIANA

CITY           SKY/WX    TMP DP  RH WIND       PRES   REMARKS
ELKHART        CLOUDY    72  55  56 W10G17    30.11R
GOSHEN         CLOUDY    69  60  73 W13       30.12R
6HR MIN TEMP:  60; 6HR MAX TEMP:  71; 6HR PCP:  0.16;

PERU/GRISSOM   MOSUNNY   64  61  88 SW8       30.14R
SOUTH BEND     CLOUDY    70  59  68 SW10      30.12R
6HR MIN TEMP:  62; 6HR MAX TEMP:  72; 6HR PCP: TRACE;


$$

INZ006>009-017-018-025>027-041900-
NORTHEAST INDIANA

CITY           SKY/WX    TMP DP  RH WIND       PRES   REMARKS
ANGOLA *+      MOSUNNY   72  61  68 VRB7      30.10F
FORT WAYNE     LGT RAIN  64  60  87 SW9       30.14R
6HR MIN TEMP:  59; 6HR MAX TEMP:  64; 6HR PCP:  0.07;


$$

INZ028-029-035-036-043>045-051>053-041900-
WEST CENTRAL INDIANA

CITY           SKY/WX    TMP DP  RH WIND       PRES   REMARKS
GREENCASTLE +  CLOUDY    68  57  68 S9        30.16S
LAFAYETTE      PTSUNNY   67  59  75 VRB6      30.14R
6HR MIN TEMP:  57; 6HR MAX TEMP:  67; 6HR PCP:  0.30;

TERRE HAUTE    CLOUDY    76  61  59 SW9       30.14F
6HR MIN TEMP:  61; 6HR MAX TEMP:  77; 6HR PCP:  0.13;


$$

INZ030>032-037>040-046>048-054>057-064-065-041900-
CENTRAL INDIANA

CITY           SKY/WX    TMP DP  RH WIND       PRES   REMARKS
ANDERSON       PTSUNNY   66  54  63 S12       30.15F
GREENWOOD *+   CLOUDY    68  57  68 S7        30.16F
INDIANAPOLIS   CLOUDY    66  59  78 S8        30.14F
6HR MIN TEMP:  60; 6HR MAX TEMP:  68; 6HR PCP:  0.13;

-EAGLE CREEK   CLOUDY    65  60  84 S6        30.15S
6HR MIN TEMP:  60; 6HR MAX TEMP:  67; 6HR PCP:  0.07;

KOKOMO *+      PTSUNNY   64  61  88 W8        30.16R
MT COMFORT *+  CLOUDY    66  54  63 S9        30.16F
SHELBYVILLE    CLOUDY    70  57  63 S8        30.15F
6HR MIN TEMP:  62; 6HR MAX TEMP:  74; 6HR PCP: TRACE;


$$

INZ033-034-041-042-049-050-058-059-041900-
EAST CENTRAL INDIANA

CITY           SKY/WX    TMP DP  RH WIND       PRES   REMARKS
MUNCIE         CLOUDY    66  57  72 S14       30.12F
6HR MIN TEMP:  63; 6HR MAX TEMP:  70; 6HR PCP:  0.03;


$$

INZ060-061-067>069-081>083-085>088-041900-
SOUTHWEST INDIANA

CITY           SKY/WX    TMP DP  RH WIND       PRES   REMARKS
EVANSVILLE     MOSUNNY   82  58  43 SW14G22   30.16F
6HR MIN TEMP:  64; 6HR MAX TEMP:  82;

HUNTINGBURG *+ PTSUNNY   81  59  47 S12G18    30.17F
6HR MIN TEMP:  63; 6HR MAX TEMP:  81;


$$

INZ062-063-066-070>080-084-089>092-041900-
SOUTH CENTRAL AND SOUTHEAST INDIANA

CITY           SKY/WX    TMP DP  RH WIND       PRES   REMARKS
BLOOMINGTON    CLOUDY    74  57  55 S8        30.16F
6HR MIN TEMP:  63; 6HR MAX TEMP:  74;

MADISON *+     PTSUNNY   79  50  36 W8        30.20F
SEYMOUR +      CLOUDY    79  55  44 CALM      30.18F

$$




USA.gov is the U.S. government's official web portal to all federal, state and local government web resources and services.